Location: Atlanta
(33.7490°N, 84.3880°W)
Time: 19:15:39
(UTC-05:00)

Daily predictions for brighter satellites

Satellite Brightness Start Highest point End
(mag) Time Altitude Azimuth Time Altitude Azimuth Time Altitude Azimuth
CENTAUR R/B 3.8 18:40:55 10° NW 18:48:54 65° WSW 18:57:09 10° SSE
Cosmos 2292 Rocket 4.3 18:46:55 10° SSE 18:51:36 54° E 18:57:53 10° NNE
Cosmos 1833 4.3 18:47:54 10° S 18:53:31 61° ESE 18:59:06 10° NNE
ASTRO E2 4.3 18:51:25 10° W 18:54:58 30° SSW 18:58:31 10° SE
ALOS 3.5 18:52:30 10° ESE 18:56:02 22° ENE 18:59:34 10° NNE
COSMO-SKYMED 1 3.2 18:53:30 10° N 18:57:47 61° WNW 19:02:03 10° SSW
FREGAT/IRIS 3.5 19:00:53 10° SE 19:03:36 29° ENE 19:06:21 10° NNE
SL-16 R/B 2.3 19:00:06 10° NNW 19:05:48 86° WSW 19:11:27 10° SSE
Cosmos 1340 3.1 19:04:59 10° N 19:08:32 38° E 19:12:04 10° SSE
Cosmos 1709 Rocket 4.0 19:04:39 10° S 19:10:51 73° E 19:17:01 10° N
NOSS 8 (H) 4.5 19:14:43 10° SSW 19:18:07 55° ESE 19:21:29 10° NE
Cosmos 1954 Rocket 4.2 19:13:14 10° SSW 19:18:24 79° WNW 19:23:38 10° NNE
Helios 1B rocket 3.9 19:18:13 12° ENE 19:20:27 17° E 19:23:11 10° SE
HJ-1C 4.2 19:17:45 10° SE 19:20:45 31° ENE 19:23:45 10° N
OTV 4 2.6 19:19:24 10° S 19:20:49 13° SE 19:21:31 12° SE
SJ-6B 2.8 19:18:03 10° SSE 19:22:02 61° ENE 19:25:56 10° N
Cosmos 2322 Rocket 2.9 19:16:39 10° NNW 19:22:10 59° WSW 19:27:39 10° S
Okean 1 Rocket 3.2 19:19:05 10° S 19:23:25 52° E 19:27:47 10° NNE
Tiangong 2 0.9 19:21:30 10° WNW 19:24:35 79° NNE 19:26:31 20° ESE
FENGYUN 3A 3.9 19:20:39 10° SE 19:25:46 46° ENE 19:30:56 10° N
Hubble Space Telescope 2.6 19:26:44 10° SSW 19:29:35 18° SSE 19:31:23 14° SE
Meteor 1-19 Rocket 4.3 19:24:57 10° N 19:30:35 59° E 19:36:16 10° SSE
Gbstr 26 Del rocket 3.7 19:29:45 10° WSW 19:33:29 43° NW 19:36:53 11° NNE
NOAA 12 4.5 19:31:35 10° S 19:36:52 68° WSW 19:42:11 10° NNW
Cosmos 2322 3.7 19:32:53 10° NNW 19:38:33 59° ENE 19:44:08 10° SSE
Cosmos 1238 Rocket 1.9 19:36:39 10° N 19:39:36 87° E 19:42:37 10° S
Atlas Centaur 2 4.3 19:39:04 10° S 19:41:42 12° SSE 19:43:34 11° SE
CZ-2D R/B 4.0 19:43:32 30° ENE 19:43:32 30° ENE 19:46:43 10° NNE
GPS 2-04 Rocket1 2.8 19:40:20 10° WSW 19:44:37 76° SSE 19:46:29 33° E
GEOS 3 Rocket 3.8 19:41:57 10° NNE 19:47:12 74° NW 19:52:28 10° SW
Cosmos 1025 Rocket 3.5 19:43:16 10° NNE 19:47:20 36° E 19:48:41 29° ESE
Meteor 1-13 Rocket 4.3 19:42:00 10° N 19:47:36 83° W 19:53:16 10° S
H-2A R/B 2.8 19:46:25 21° SE 19:48:35 48° ENE 19:52:11 10° N
Cosmos 1536 2.7 19:45:06 10° S 19:49:05 89° E 19:53:05 10° N
SL-19 R/B 4.3 19:45:30 10° SSE 19:51:03 67° ENE 19:56:55 10° N
Okean 1-7 Rocket 3.5 19:49:07 10° N 19:53:36 62° E 19:58:01 10° SSE
Cosmos 1633 4.5 19:50:17 10° SW 19:53:37 32° W 19:56:57 10° NNW
COSMOS 2428 3.1 19:48:31 10° N 19:53:51 40° ENE 19:55:38 31° ESE
Cosmos 2237 4.3 19:48:34 10° N 19:54:10 52° ENE 19:57:28 24° SE
Meteor 1-23 Rocket 4.3 19:48:40 10° N 19:54:20 54° E 19:59:55 10° SSE
SL-08 ROCKET BODY 4.4 19:49:51 10° S 19:55:59 80° E 20:02:12 10° N
Meteor 2-4 Rocket 3.5 19:51:10 10° N 19:56:40 70° E 20:02:01 10° SSE
Cosmos 2237 Rocket 4.1 19:54:41 10° NNE 19:55:53 12° NE 19:55:53 12° NE
Cosmos 1741 Rocket 4.3 19:56:43 10° SSW 20:01:55 69° WNW 20:07:08 10° NNE
Cosmos 2219 3.5 20:04:35 10° SSW 20:10:19 71° WNW 20:16:04 10° NNE
Cosmos 2360 Rocket 2.7 20:07:27 10° NNW 20:13:00 59° WSW 20:18:32 10° S
Cosmos 2219 Rocket 3.2 20:09:50 10° N 20:13:36 29° NE 20:13:36 29° NE
Cosmos 2227 Rocket 3.7 20:11:34 10° SSE 20:13:25 20° SSE 20:13:25 20° SSE
Cosmos 1570 Rocket 3.9 20:16:22 10° NNW 20:21:37 84° WSW 20:24:15 30° S
BREEZE-M DEB (TANK) 4.3 20:20:38 10° W 20:23:40 23° NW 20:23:47 23° NW
Resurs 01 Rocket 2.5 20:19:58 10° S 20:24:14 49° W 20:28:31 10° NNW
Abrixas rocket 4.3 20:27:19 10° W 20:29:39 27° NW 20:29:39 27° NW
Cosmos 1610 Rocket 4.4 20:24:29 10° S 20:30:45 89° WNW 20:36:58 10° N
DELTA 2 R/B (1) 3.5 20:25:17 10° WNW 20:30:53 73° SSW 20:31:31 65° SSE
ATLAS CENTAUR R/B 2.8 20:26:56 10° SW 20:30:46 40° WSW 20:30:46 40° WSW
ALOS 4.1 20:29:10 10° SSW 20:33:15 30° W 20:37:21 10° NW
Helios 1A 4.2 20:40:56 36° NNW 20:40:56 36° NNW 20:43:31 10° NNW
Cosmos 2333 Rocket 3.4 20:43:10 10° N 20:46:14 30° N 20:46:14 30° N
USA 229 DEB 3.6 20:47:26 10° NNW 20:54:32 78° NE 20:54:32 78° NE
USA 229 3.7 20:47:32 10° NNW 20:54:36 77° NE 20:54:36 77° NE
Helios 1B rocket 4.3 20:54:33 25° NW 20:55:45 30° WNW 20:59:21 10° SW
Hubble Space Telescope 3.8 21:06:34 10° WSW 21:06:47 11° WSW 21:06:47 11° WSW
ATLAS 3B CENTAUR R/B 4.5 20:51:43 10° SW 21:15:14 46° SSE 21:16:23 46° SSE
BREEZE-M DEB (TANK) 4.5 21:15:31 10° NW 21:17:19 35° WNW 21:17:19 35° WNW
Cosmos 2237 Rocket 4.5 21:36:31 10° NNW 21:37:45 17° NNW 21:37:45 17° NNW
